Tracking 19634 objects as of 21-May-2019
HD Live streaming from Space Station
objects crossing your sky now

COSMOS 2233

Track COSMOS 2233 now!
10-day predictions
COSMOS 2233 is classified as:


NORAD ID: 22487
Int'l Code: 1993-008A
Perigee: 957.2 km
Apogee: 1,014.8 km
Inclination: 82.9 °
Period: 104.7 minutes
Semi major axis: 7357 km
RCS: 2.1545 m2 (large)
Launch date: February 9, 1993
Source: Commonwealth of Independent States (former USSR) (CIS)
Launch site: PLESETSK MISSILE AND SPACE COMPLEX (PKMTR)
aabbcc
Your satellite tracking list
Your tracking list is empty




NASA's NSSDC Master Catalog

Two Line Element Set (TLE):
1 22487U 93008A   19141.54433765  .00000007  00000-0 -87234-5 0  9993
2 22487  82.9425 298.7825 0039205 132.8684 293.8438 13.75787282315047
Source of the keplerian elements: AFSPC